Cosmos 1674 Rocket - Orbit

View from above orbital plane
View from above orbital plane
View from above satellite
View from above satellite

Ground track
Ground track

The orbit data is extracted from the following two-line orbital elements,

1 15945U 85069B   13142.85459872  .00000396  00000-0  45571-4 0  3416
2 15945 082.5291 084.2317 0021390 141.9231 270.5062 14.83001038500661
Epoch (UTC): 22 May 2013 20:30:37
Eccentricity: 0.0021390
inclination: 82.5291°
perigee height: 605 km
apogee height: 635 km
right ascension of ascending node: 84.2317°
argument of perigee: 141.9231°
revolutions per day: 14.83001038
mean anomaly at epoch: 270.5062°
orbit number at epoch: 50066

The dashed part of the orbit path shows where the satellite is in the earth's shadow,  

Developed and maintained by Chris Peat, Heavens-Above GmbH. Please read the updated FAQ before sending e-mail. Imprint. DLR